Regional Weather Roundup
Issued by NWS

Home | Current Version | Previous Version | Graphics & Text | Print | Product List | Glossary On
Versions: 1 2 3 4 5 6 7 8 9 10 11 12 13 14 15 16 17 18 19 20 21 22 23 24 25 26 27 28 29 30 31 32 33 34 35 36 37 38 39 40 41 42 43 44 45 46 47 48 49 50
000
ASUS43 KOAX 261310
RWRNE

WEATHER ROUNDUP FOR NEBRASKA
NATIONAL WEATHER SERVICE OMAHA NE
800 AM CDT TUE MAY 26 2015

NOTES: SATELLITE DATA IS BEING USED TO AUGMENT CLOUD COVER ABOVE
       12000 FEET.
       "FAIR" INDICATES FEW OR NO CLOUDS BELOW 12,000 FEET WITH NO
       SIGNIFICANT WEATHER AND/OR OBSTRUCTIONS TO VISIBILITY.

  * THESE STATIONS DO NOT REPORT WEATHER SUCH AS RAIN...SNOW OR FOG.

NEZ001>004-019>022-054>056-261400-
NEBRASKA PANHANDLE

CITY           SKY/WX    TMP DP  RH WIND       PRES   REMARKS
SCOTTSBLUFF    CLOUDY    49  49 100 W6        30.01R
ALLIANCE       CLOUDY    53  51  93 N6        29.99R
CHADRON        CLOUDY    54  52  93 N5        29.99S
KIMBALL          N/A    N/A N/A N/A MISG        N/A
SIDNEY         FOG       48  47  96 NW7       30.01R VSB 1/4
$$

NEZ057>060-069>072-079>082-261400-
SOUTHWEST NEBRASKA

CITY           SKY/WX    TMP DP  RH WIND       PRES   REMARKS
NORTH PLATTE   MOSUNNY   56  51  84 N9        29.94R
IMPERIAL       MOSUNNY   53  49  86 NW9       29.97R
LEXINGTON      CLOUDY    56  53  89 N17       29.90R
MCCOOK         MOSUNNY   56  52  86 NW7       29.93R
OGALLALA       CLOUDY    55  53  92 NW6       29.97R
$$

NEZ005>010-023>029-035>040-094-261400-
NORTH CENTRAL NEBRASKA

CITY           SKY/WX    TMP DP  RH WIND       PRES   REMARKS
VALENTINE      MOSUNNY   53  50  89 N10       29.95R
AINSWORTH      PTSUNNY   53  51  94 N9        29.92S
BROKEN BOW     MOSUNNY   56  50  80 N18       29.89S
O`NEILL        CLOUDY    55  52  89 N12       29.89R
ORD            CLOUDY    56  52  86 NW15      29.86R
THEDFORD       MOSUNNY   53  50  87 N7        29.95R
$$

NEZ041-046>049-061>064-073>077-083>087-261400-
SOUTH CENTRAL NEBRASKA

CITY           SKY/WX    TMP DP  RH WIND       PRES   REMARKS
GRAND ISLAND   PTSUNNY   59  56  89 NW20      29.84R
AURORA         CLOUDY    59  58  96 NW10      29.82R
HASTINGS       CLOUDY    60  56  86 NW18G25   29.82R
HEBRON         CLOUDY    58  55  87 W6        29.80R
HOLDREGE       PTSUNNY   58  54  86 N13G18    29.86S
KEARNEY *      CLOUDY    57  52  82 N17       29.86R
YORK           PTSUNNY   59  57  94 NW14      29.81R
$$

NEZ011>018-030>034-042>045-261400-
NORTHEAST NEBRASKA

CITY           SKY/WX    TMP DP  RH WIND       PRES   REMARKS
NORFOLK        CLOUDY    59  58  96 N14       29.80F FOG
ALBION         LGT RAIN  56  54  94 N14       29.83R
BLAIR          CLOUDY    61  57  88 S5        29.78S
COLUMBUS *       N/A    N/A N/A N/A MISG        N/A
FREMONT        CLOUDY    62  59  91 CALM      29.79R
TEKAMAH        CLOUDY    62  60  93 SE6       29.78R
WAYNE          CLOUDY    58  57  96 N12       29.81S FOG
$$

NEZ050>053-065>068-078-088>093-261400-
SOUTHEAST NEBRASKA

CITY           SKY/WX    TMP DP  RH WIND       PRES   REMARKS
LINCOLN        CLOUDY    63  58  83 N3        29.78S
OMAHA EPPLEY   LGT RAIN  62  60  93 S3        29.78S
BEATRICE       CLOUDY    61  58  89 SW10      29.77R
FALLS CITY     CLOUDY    61  58  90 S9        29.79R
NEBRASKA CITY  RAIN      60  60  98 S6        29.78R
PLATTSMOUTH    CLOUDY    60  58  92 CALM      29.78R
$$

NEZ044-045-051>053-067-261400-
OMAHA AREA

CITY           SKY/WX    TMP DP  RH WIND       PRES   REMARKS
OMAHA EPPLEY   LGT RAIN  62  60  93 S3        29.78S
BLAIR          CLOUDY    61  57  88 S5        29.78S
FREMONT        CLOUDY    62  59  91 CALM      29.79R
MILLARD        CLOUDY    62  59  88 CALM      29.78R
OFFUTT AFB     CLOUDY    61  60  96 CALM      29.77S
PLATTSMOUTH    CLOUDY    60  58  92 CALM      29.78R
WAHOO          CLOUDY    61  59  92 CALM      29.78S
$$



USA.gov is the U.S. government's official web portal to all federal, state and local government web resources and services.